#timestamp,LO_Frequency,Hit,StdDev 
1660561215.9,286047000.8,N
1660561235.7,286047001.2,N
1660561255.6,286047001.0,N
1660561275.4,286047001.2,N
1660561295.2,286047001.1,N
1660561315.1,286047001.2,N
1660561316.0,286047001.2,N
1660561335.8,286046998.5,N
1660561355.7,286047001.0,N
1660561375.5,286047000.5,N
1660561395.3,286047000.4,N
1660561415.2,286046998.8,N
1660561435.0,286046998.5,N
1660561435.9,286046998.5,N
1660561455.8,286046996.8,Y
1660561475.6,286046998.9,P
1660561495.4,286046999.1,N
1660561515.3,286046997.4,P
1660561535.1,286046999.4,N
1660561555.8,286046998.5,N
1660561575.7,286046998.2,N
1660561595.5,286047000.7,N
1660561615.4,286047000.7,N
1660561635.2,286047001.1,N
1660561655.0,286046998.8,N
1660561655.9,286046998.8,N
1660561675.8,286046998.3,N
1660561695.6,286047001.2,N
1660561715.5,286046999.9,N
1660561735.3,286047001.0,N
1660561755.1,286047000.0,N
1660561775.9,286047000.1,N
1660561795.7,286047000.2,N
1660561815.5,286047000.9,N
1660561835.4,286047000.1,N
1660561855.2,286047000.1,N
1660561875.1,286046999.8,N
1660561876.0,286046999.8,N
1660561895.8,286047000.3,N
1660561915.6,286047000.4,N
1660561935.5,286047000.6,N
1660561955.3,286046999.8,N
1660561975.1,286046999.9,N
1660561995.9,286047001.1,N
1660562015.7,286047000.0,N
1660562035.6,286047000.5,N
1660562055.4,286047001.2,N
1660562075.2,286047000.4,N
1660562095.1,286046998.1,N
1660562096.0,286046998.1,N
1660562115.8,286047000.8,N
1660562135.6,286046998.4,N
1660562155.5,286046998.4,N
1660562175.3,286046998.3,N
1660562195.2,286046998.2,N
1660562215.9,286047001.1,N
1660562235.7,286046998.6,N
1660562255.6,286046998.4,N
1660562275.4,286046998.9,N
1660562295.2,286046998.3,N
1660562315.1,286046998.5,N
1660562316.0,286046998.5,N
1660562335.8,286046998.3,N
1660562355.7,286046998.4,N
1660562375.5,286046998.8,N
1660562395.3,286047000.8,N
1660562415.2,286046998.6,N
1660562435.0,286046998.2,N
1660562435.9,286046998.2,N
1660562455.8,286046998.1,N
1660562475.6,286046998.9,N
1660562495.4,286046999.0,N
1660562515.3,286046998.8,N
1660562535.1,286046999.3,N
1660562555.8,286046998.3,N
1660562575.7,286046999.4,N
1660562595.5,286046998.7,N
1660562615.4,286046998.7,N
1660562635.2,286046998.8,N
1660562655.0,286046996.6,Y
1660562655.9,286046996.6,P
1660562675.8,286047001.0,N
1660562695.6,286047001.2,N
1660562715.4,286047000.7,N
1660562735.3,286047000.9,N
1660562755.1,286047001.0,N
1660562775.9,286047001.0,N
1660562795.7,286047000.6,N
1660562815.5,286047000.9,N
1660562835.4,286047000.6,N
1660562855.2,286047001.0,N
1660562875.0,286046998.1,N
1660562876.0,286046998.1,N
1660562895.8,286046998.3,N
1660562915.6,286046999.4,N
1660562935.5,286046999.6,N
1660562955.3,286046996.9,N
1660562975.1,286046999.0,N
1660562995.9,286046998.4,N
1660563015.7,286046998.4,N
1660563035.6,286046999.1,N
1660563055.4,286046998.2,N
1660563075.2,286046999.0,N
1660563095.1,286046999.1,N
1660563096.0,286046999.1,N
1660563115.8,286046998.4,N
1660563135.6,286046998.3,N
1660563155.5,286047001.0,N
1660563175.3,286047001.1,N
1660563195.2,286046998.1,N
1660563215.9,286047000.7,N
1660563235.7,286046999.9,N
1660563255.6,286046999.7,N
1660563275.4,286047000.4,N
1660563295.3,286047000.4,N
1660563315.1,286046999.7,N
1660563335.9,286046999.8,N
1660563355.7,286047002.7,N
1660563375.5,286047002.8,N
1660563395.4,286047002.6,N
1660563415.2,286047002.8,N
1660563435.1,286047002.8,N
1660563436.0,286047002.8,N
1660563455.8,286046999.8,N
1660563475.6,286047002.3,N
1660563495.5,286047000.0,N
1660563515.3,286046999.7,N
1660563535.2,286046999.8,N
1660563555.9,286047002.8,N
1660563575.7,286047000.2,N
1660563595.6,286047000.5,N
1660563615.4,286047000.3,N
1660563635.3,286047000.5,N
1660563655.1,286047000.9,N
1660563656.0,286047000.9,N
1660563675.8,286047000.6,N
1660563695.7,286047001.2,N
1660563715.5,286046998.1,N
1660563735.3,286046998.4,N
1660563755.2,286046999.0,N
1660563775.0,286046997.8,N
1660563775.9,286046997.8,N
1660563795.8,286046996.9,N
1660563815.6,286046999.6,N
1660563835.4,286046997.2,N
1660563855.3,286046996.8,N
1660563875.1,286046999.3,N
1660563895.9,286046998.5,N
1660563915.7,286046999.5,N
1660563935.5,286046999.6,N
1660563955.4,286046998.9,N
1660563975.2,286047001.2,N
1660563995.0,286046999.0,N
1660563995.9,286046999.0,N
1660564015.8,286046998.8,N
1660564035.6,286046998.2,N
1660564055.5,286047000.7,N
1660564075.3,286046999.6,N
1660564095.1,286046997.0,N
1660564115.9,286046996.9,N
1660564135.7,286046996.9,N
1660564155.6,286046996.8,N
1660564175.4,286046996.5,N
1660564195.2,286046997.2,N
1660564215.1,286046997.2,N
1660564216.0,286046997.2,N
1660564235.8,286046997.5,N
1660564255.7,286046994.9,Y
1660564275.5,286046997.4,P
1660564295.3,286046997.9,P
1660564315.2,286046994.9,P
1660564335.0,286046996.0,Y
1660564335.9,286046996.0,P
1660564355.8,286046997.2,P
1660564375.6,286046995.3,P
1660564395.4,286046996.2,Y
1660564415.3,286047001.2,P
1660564435.1,286046998.2,N
1660564455.8,286047000.6,N
1660564475.7,286047001.0,N
1660564495.5,286047000.8,N
1660564515.4,286047001.1,N
1660564535.2,286047001.2,N
1660564555.0,286046998.2,N
1660564555.9,286046998.2,N
1660564575.8,286046998.2,N
1660564595.6,286046998.3,N
1660564615.5,286047001.1,N
1660564635.3,286046999.9,N
1660564655.1,286047002.3,N
1660564675.9,286047002.0,N
1660564695.7,286047004.0,N
1660564715.5,286047004.4,N
1660564735.4,286047000.1,N
1660564755.2,286047000.5,N
1660564775.1,286046998.2,N
1660564776.0,286046998.2,N
1660564795.8,286046998.2,N
